Regional Weather Roundup
Issued by NWS

Home | Current Version | Previous Version | Text Only | Print | Product List | Glossary Off
Versions: 1 2 3 4 5 6 7 8 9 10 11 12 13 14 15 16 17 18 19 20 21 22 23 24 25 26 27 28 29 30 31 32 33 34 35 36 37 38 39 40 41 42 43 44 45 46 47 48 49 50

294
ASUS43 KLMK 301510
RWRKY
KENTUCKY REGIONAL WEATHER ROUNDUP
NATIONAL WEATHER SERVICE LOUISVILLE KY
1100 AM EDT TUE AUG 30 2016

NOTE "FAIR" INDICATES FEW OR NO CLOUDS BELOW 12,000 FEET
WITH NO SIGNIFICANT WEATHER AND/OR OBSTRUCTIONS TO VISIBILITY.

KYZ001>023-026-027-061>063-070>075-301600-
WESTERN AND SOUTH CENTRAL KENTUCKY

CITY           SKY/WX    TMP DP  RH WIND       PRES   REMARKS
PADUCAH        SUNNY     86  73  65 CALM      30.10F HX  93
HENDERSON      SUNNY     84  72  65 E3        30.10F
OWENSBORO      SUNNY     86  75  69 E7        30.12F HX  95
HOPKINSVILLE   SUNNY     82  73  73 VRB3      30.11F
BOWLING GREEN  SUNNY     82  72  71 CALM      30.12F
GLASGOW        SUNNY     82  71  70 CALM      30.13S
$$

KYZ024-025-028>034-038-045-046-053-301600-
NORTH CENTRAL KENTUCKY

CITY           SKY/WX    TMP DP  RH WIND       PRES   REMARKS
LOUISVILLE/SDF MOSUNNY   84  69  60 CALM      30.13F
LOUISVILLE/LOU SUNNY     84  69  60 SE3       30.14F
FORT KNOX      SUNNY     82  71  67 E8        30.13F
$$

KYZ035>037-039>044-047>052-055>060-089>105-301600-
NORTHEAST KENTUCKY

CITY           SKY/WX    TMP DP  RH WIND       PRES   REMARKS
LEXINGTON      SUNNY     85  68  56 E6        30.16S
COVINGTON      SUNNY     81  69  67 E5        30.17S
FRANKFORT      SUNNY     83  70  64 E5        30.15S
$$

KYZ054-064>069-076>088-106>120-301600-
SOUTHEAST KENTUCKY

CITY           SKY/WX    TMP DP  RH WIND       PRES   REMARKS
JACKSON        SUNNY     79  71  76 CALM      30.17S
LONDON         SUNNY     81  68  64 SE3       30.16S
SOMERSET       SUNNY     81  68  65 CALM      30.16S
MIDDLESBORO    SUNNY     81  70  68 CALM      30.16F
MONTICELLO     SUNNY    N/A N/A N/A W8        30.16F
$$





USA.gov is the U.S. government's official web portal to all federal, state and local government web resources and services.